Location: The Jewett Observatory
(46.7288°N, 117.1525°W)
Time: 23:36:00
(UTC-07:00)

Daily predictions for brighter satellites

Satellite Brightness Start Highest point End
(mag) Time Altitude Azimuth Time Altitude Azimuth Time Altitude Azimuth
NOSS 3-2 (C) 3.9 20:53:31 10° SW 20:59:36 72° NW 21:06:23 10° NE
COSMOS 2455 2.9 20:56:00 10° SSW 21:02:00 84° ESE 21:08:04 10° NE
Molniya-1 1.9 21:00:50 10° SSW 21:02:27 59° SE 21:04:00 10° NE
Cosmos 372 Rocket 4.3 21:00:29 10° S 21:05:18 43° ESE 21:10:07 10° NE
Cosmos 1939 Rocket 3.4 21:01:43 10° S 21:05:50 64° W 21:09:55 10° NNW
CENTAUR R/B 2.6 21:00:33 10° SSW 21:06:26 55° ESE 21:13:08 10° NE
Meteor 1-27 Rocket 4.2 21:02:31 10° N 21:08:04 45° ENE 21:13:26 10° SE
Helios 1A 3.1 21:04:15 10° S 21:08:26 79° WSW 21:12:41 10° NNW
Envisat 3.9 21:03:55 10° S 21:08:51 51° W 21:13:50 10° NNW
Cosmos 2221 Rocket 3.6 21:04:29 10° N 21:08:58 86° E 21:13:26 10° S
Cosmos 1825 2.6 21:05:31 10° SSE 21:09:06 44° E 21:12:43 10° NNE
Meteor 1-10 Rocket 4.4 21:04:44 10° N 21:10:43 76° ENE 21:16:36 10° SSE
Meteor 2-6 Rocket 4.4 21:05:40 10° N 21:11:38 72° ENE 21:17:35 10° SSE
USA 186 4.4 21:15:10 10° SW 21:17:03 16° W 21:19:02 10° NW
Cosmos 1269 Rocket 4.1 21:17:17 10° NNW 21:22:37 89° WSW 21:27:54 10° SSE
SPOT 1/Viking Rocket 4.3 21:20:11 10° SE 21:24:50 37° ENE 21:29:37 10° N
Cosmos 1782 3.0 21:21:26 10° NNW 21:25:26 74° W 21:29:23 10° S
Cosmos 1125 Rocket 3.5 21:20:30 10° SSW 21:25:43 77° ESE 21:30:58 10° NNE
MetOp-A 4.2 21:22:17 10° SSE 21:27:36 73° ENE 21:32:57 10° N
H-2A R/B 4.2 21:29:01 10° ENE 21:30:26 12° ENE 21:31:53 10° NE
Cosmos 2227 Rocket 4.1 21:28:05 10° N 21:31:55 18° NE 21:35:44 10° E
Milstar 3 4.4 21:27:44 10° SW 21:36:20 23° S 21:41:17 14° SE
Cosmos 1943 Rocket 2.1 21:34:21 10° SSW 21:39:56 86° ESE 21:45:31 10° NNE
Cosmos 1340 2.8 21:36:29 10° NNW 21:40:17 74° W 21:44:04 10° S
SAR-Lupe-4 4.4 21:36:49 10° S 21:40:18 50° W 21:43:49 10° NNW
Okean 1-7 4.1 21:36:27 10° NNW 21:40:40 45° W 21:44:51 10° SSW
Cosmos 2219 3.9 21:35:59 10° NNW 21:41:30 44° NE 21:45:59 15° ESE
Resurs 01 Rocket 4.5 21:42:17 10° WSW 21:44:15 13° W 21:46:12 10° WNW
Nadezhda 4 Rocket 4.2 21:38:49 10° SSE 21:44:49 54° E 21:50:47 10° NNE
YAOGAN 11 4.3 21:41:58 14° SSE 21:45:46 65° ENE 21:50:14 10° N
Cosmos 494 Rocket 4.2 21:41:09 10° NNW 21:46:20 57° ENE 21:50:13 17° SE
Meteor 1-29 3.8 21:43:18 10° N 21:46:45 53° WNW 21:50:08 10° SSW
Cosmos 1862 3.2 21:45:53 10° S 21:49:50 77° E 21:53:50 10° NNE
ISS -2.9 21:48:11 10° W 21:51:22 50° NNW 21:54:34 10° ENE
Cosmos 1867 3.6 21:52:26 10° NW 21:57:56 85° NE 22:01:48 20° SE
TRAILBLAZER 4.5 21:53:58 10° SSW 21:58:28 71° SE 22:03:02 10° NE
Helios 1B rocket 4.0 21:55:13 10° N 21:59:02 37° WNW 22:02:48 10° SW
Cosmos 1606 4.5 21:59:05 10° NNW 22:02:23 29° W 22:05:41 10° SSW
Terra 2.6 21:59:48 19° SE 22:02:39 38° ENE 22:07:02 10° N
Cosmos 405 Rocket 4.2 22:00:53 10° NNE 22:03:52 22° ENE 22:05:11 19° E
Intercosmos 25 Rocket 4.3 21:57:49 10° N 22:05:24 84° E 22:08:50 19° SSE
H-2A R/B 2.1 22:01:15 17° SSE 22:05:29 82° ENE 22:10:48 10° NNW
Lacrosse 4 Rocket 2.9 22:05:01 10° NW 22:09:02 33° WSW 22:12:26 13° S
ERS-1 Rocket 4.0 22:04:22 10° S 22:09:09 42° W 22:13:57 10° NNW
Cosmos 2369 Rocket 3.8 22:04:51 10° WSW 22:10:05 37° NW 22:15:23 10° NNE
Cosmos 1437 2.6 22:10:22 10° N 22:13:35 76° ENE 22:14:51 34° SSE
BREEZE-M DEB (TANK) 4.2 22:13:27 22° SE 22:14:33 24° ESE 22:22:26 10° ENE
Gbstr 26 Del rocket 3.4 22:10:00 10° WNW 22:14:40 60° NNE 22:17:34 18° E
Cosmos 1733 Rocket 3.1 22:10:32 10° SSW 22:14:50 77° W 22:19:12 10° N
ATLAS CENTAUR R/B 1.7 22:17:27 25° S 22:19:11 39° ESE 22:22:48 10° NE
Cosmos 1782 Rocket 4.5 22:18:19 26° ESE 22:19:41 31° E 22:23:34 10° NNE
ATLAS 5 CENTAUR R/B 3.7 22:17:37 10° NW 22:22:54 32° WSW 22:27:46 13° S
Cosmos 1346 2.7 22:21:53 10° NNW 22:24:35 83° WSW 22:25:03 56° S
Nimbus 7 Rocket 4.3 22:19:15 10° NNE 22:25:10 77° ESE 22:30:28 13° S
Cosmos 2297 Rocket 3.4 22:21:36 10° NNW 22:26:40 32° NE 22:30:09 17° ESE
Cosmos 1441 Rocket 4.5 22:23:50 10° N 22:27:10 27° ENE 22:28:08 24° E
SPOT 5 3.8 22:24:48 14° S 22:29:11 50° W 22:34:19 10° NNW
Lacrosse 5 rocket 3.2 22:26:04 10° W 22:29:16 29° NNW 22:32:34 10° NE
USA 215 3.6 22:28:10 23° SSE 22:32:13 55° SW 22:38:41 10° WNW
Cosmos 1656 Rocket 3.7 22:28:41 10° SSW 22:34:09 79° WNW 22:39:45 10° NNE
Cosmos 2344 3.8 22:27:21 10° SW 22:35:01 84° NW 22:43:59 10° NE
BREEZE M DEB (TANK) 3.3 22:26:21 10° WSW 22:35:28 85° SSE 22:38:34 10° ENE
BREEZE-M DEB 4.0 22:23:57 10° W 22:35:33 70° NNW 22:38:55 10° ENE
Sich 1 Rocket 3.5 22:33:32 29° S 22:35:45 72° E 22:40:09 10° NNE
ARGOS 4.3 22:33:10 11° SSW 22:37:50 37° W 22:42:49 10° NNW
Cosmos 1975 Rocket 3.3 22:33:51 10° N 22:38:15 56° ENE 22:39:51 35° SE
Spot 4 4.3 22:43:17 31° SE 22:45:10 49° ENE 22:49:50 10° N
Meteor 2-20 Rocket 4.4 22:40:52 19° S 22:45:29 89° E 22:51:39 10° N
CZ-4 R/B 4.3 22:42:13 10° NNE 22:46:35 39° E 22:47:33 35° SE
Cosmos 1378 Rocket 3.8 22:44:42 10° NNW 22:49:07 65° W 22:51:09 31° SSW
CARTOSAT-1 3.6 22:47:30 36° S 22:49:14 78° WSW 22:53:35 10° NNW
Cosmos 1633 3.7 22:49:37 28° E 22:49:37 28° E 22:52:28 10° NNE
Cosmos 2251 Rocket 4.1 22:47:44 10° NNW 22:52:47 49° WSW 22:55:26 26° SSW
Cosmos 2082 4.3 22:48:15 10° NNW 22:53:49 48° ENE 22:56:32 28° ESE
Okean 3 4.2 22:51:08 10° NNW 22:55:10 48° W 22:57:01 28° SSW
CENTAUR R/B 4.0 22:51:22 10° WSW 22:57:21 42° NW 23:04:10 10° NE
IGS 5A 3.6 22:56:46 38° SSW 22:58:11 65° WSW 23:02:20 10° NNW
Cosmos 1655 Rocket 4.0 22:55:58 31° SSE 22:58:59 65° E 23:05:11 10° NNE
DMSP B5D2-2 4.3 22:56:25 10° N 23:01:37 67° WNW 23:05:27 18° SSW
Cosmos 2026 Rocket 3.9 22:59:37 26° S 23:03:17 88° E 23:09:37 10° N
Meteor 2-11 Rocket 4.4 22:57:54 10° N 23:04:05 78° E 23:06:48 35° SSE
H-2A R/B 1.9 23:04:49 51° S 23:05:49 83° WSW 23:09:59 10° NNW
Meteor 1-20 Rocket 4.2 23:04:54 33° S 23:07:37 79° E 23:13:18 10° NNE
CZ-2C R/B 3.9 23:03:52 10° NE 23:08:00 23° E 23:08:26 23° E
Cosmos 1656 4.5 23:14:03 30° ESE 23:14:20 30° ESE 23:19:06 10° NE
Cosmos 2227 Rocket 2.1 23:11:12 10° NNW 23:16:54 82° ENE 23:18:54 42° SE
Cosmos 1812 3.6 23:13:28 10° NNW 23:17:11 43° W 23:18:05 36° SW
Meteor 1-25 Rocket 4.3 23:15:27 29° SSW 23:18:37 79° WNW 23:24:30 10° N
USA 229 DEB 4.4 23:18:09 31° SE 23:18:55 32° ESE 23:24:56 10° NE
USA 229 4.4 23:18:17 31° SE 23:19:02 32° ESE 23:25:00 10° NE
Cosmos 1428 Rocket 4.4 23:16:48 33° S 23:19:49 85° E 23:26:11 10° N
CZ-4C R/B 3.6 23:15:37 10° NNW 23:22:10 45° NE 23:28:00 16° ESE
Cosmos 2219 4.4 23:20:25 10° NW 23:25:31 33° WSW 23:27:54 24° SSW
S3M 3.9 23:20:26 10° N 23:26:35 88° W 23:29:00 40° S
Meteor 1-19 Rocket 4.4 23:21:38 10° N 23:27:29 67° ENE 23:29:25 43° SE
Cosmos 407 Rocket 4.2 23:22:54 10° NNW 23:28:02 45° ENE 23:29:48 33° ESE
ISS -2.1 23:25:16 10° WNW 23:28:16 33° N 23:30:01 19° NE
GEOS 3 Rocket 4.1 23:28:05 39° SSW 23:29:24 48° WSW 23:34:29 10° NW
Meteor 1-13 Rocket 4.3 23:26:15 10° N 23:32:03 73° ENE 23:33:54 45° SSE
BREEZE-M (TANK) 3.9 23:18:38 10° W 23:32:25 71° N 23:35:13 19° E
Cosmos 405 Rocket 4.2 23:36:46 10° NW 23:39:55 26° W 23:40:23 25° WSW
Terra 3.3 23:38:41 22° SW 23:40:28 27° W 23:44:32 10° NW
CZ-4B R/B 3.3 23:36:50 10° NNE 23:41:49 84° WNW 23:43:07 50° SSW
Cosmos 1980 Rocket 3.6 23:43:36 22° E 23:43:36 22° E 23:47:39 10° NE
Cosmos 1553 Rocket 4.2 23:37:17 10° NNW 23:43:35 63° W 23:46:06 36° SSW
Okean 2 Rocket 3.7 23:43:46 37° SW 23:45:03 49° WNW 23:49:24 10° N
H-2A R/B 4.4 23:42:29 10° WSW 23:45:30 15° W 23:48:31 10° NW
Cosmos 2369 3.6 23:44:06 49° S 23:45:35 70° ESE 23:51:17 10° NNE
Cosmos 1536 3.4 23:50:55 46° ENE 23:50:55 46° ENE 23:54:30 10° NNE
Meteor 2-4 Rocket 3.6 23:46:48 10° N 23:52:11 75° E 23:53:21 54° SE
Okean 1 Rocket 3.8 23:52:40 38° E 23:52:40 38° E 23:56:29 10° NNE
deb Chang Zheng 4 4.4 23:48:24 10° N 23:52:40 47° WNW 23:54:08 34° WSW
APEX 4.5 23:49:17 10° NW 23:52:56 31° W 23:52:56 31° W
CZ-4C R/B 3.9 23:55:23 47° WSW 23:55:39 48° W 23:59:39 10° NNW
